2025-292F

Last updated on Mon Dec 15 2025 00:02:13 GMT+0000 (Coordinated Universal Time)

1 66998U 25292F 25348.60168007 .00000854 00000+0 64716-4 0 9992 2 66998 97.6570 61.1387 0014675 270.7790 89.1754 15.04845918 677
UTC large
Height (km)
Speed (km/s)
/
Latitude / Longitude
Inclination (degrees)
Orbital Period (minutes)
Azimuth
Elevation
Range (km)
Doppler Factor

Next 0 passes for location: London (51.5072 / 0.1276)

Sorry there are no passes over London.